TimeMDT,TemperatureF,Dew PointF,Humidity,Sea Level PressureIn,VisibilityMPH,Wind Direction,Wind SpeedMPH,Gust SpeedMPH,PrecipitationIn,Events,Conditions,WindDirDegrees,DateUTC
12:16 AM,39.2,35.6,87,29.87,10.0,Calm,Calm,-,N/A,,Clear,0,2012-11-01 06:16:00
12:35 AM,37.4,35.6,93,29.87,10.0,SE,3.5,-,N/A,,Clear,140,2012-11-01 06:35:00
1:15 AM,37.4,33.8,87,29.86,10.0,Calm,Calm,-,N/A,,Clear,0,2012-11-01 07:15:00
1:35 AM,37.4,35.6,93,29.86,10.0,Calm,Calm,-,N/A,,Clear,0,2012-11-01 07:35:00
1:55 AM,39.2,35.6,87,29.86,10.0,Calm,Calm,-,N/A,,Clear,0,2012-11-01 07:55:00
2:35 AM,39.2,35.6,87,29.86,10.0,Calm,Calm,-,N/A,,Clear,0,2012-11-01 08:35:00
2:55 AM,37.4,35.6,93,29.87,10.0,NNE,4.6,-,N/A,,Partly Cloudy,20,2012-11-01 08:55:00
3:15 AM,37.4,35.6,93,29.87,10.0,Calm,Calm,-,N/A,,Clear,0,2012-11-01 09:15:00
3:35 AM,37.4,35.6,93,29.87,10.0,South,3.5,-,N/A,,Clear,190,2012-11-01 09:35:00
4:15 AM,37.4,35.6,93,29.86,10.0,Calm,Calm,-,N/A,,Clear,0,2012-11-01 10:15:00
4:35 AM,39.2,37.4,93,29.85,10.0,Calm,Calm,-,N/A,,Clear,0,2012-11-01 10:35:00
5:15 AM,37.4,35.6,93,29.86,10.0,Calm,Calm,-,N/A,,Clear,0,2012-11-01 11:15:00
5:55 AM,39.2,35.6,87,29.87,10.0,Calm,Calm,-,N/A,,Partly Cloudy,0,2012-11-01 11:55:00
6:15 AM,39.2,37.4,93,29.87,10.0,Calm,Calm,-,N/A,,Mostly Cloudy,0,2012-11-01 12:15:00
7:35 AM,39.2,37.4,93,29.87,10.0,Calm,Calm,-,N/A,,Mostly Cloudy,0,2012-11-01 13:35:00
7:55 AM,37.4,35.6,93,29.88,9.0,North,5.8,-,N/A,,Overcast,350,2012-11-01 13:55:00
8:35 AM,37.4,35.6,93,29.88,9.0,Calm,Calm,-,N/A,,Overcast,0,2012-11-01 14:35:00
8:55 AM,37.4,35.6,93,29.88,7.0,Calm,Calm,-,N/A,,Overcast,0,2012-11-01 14:55:00
9:35 AM,41.0,37.4,87,29.88,10.0,ESE,6.9,-,N/A,,Overcast,110,2012-11-01 15:35:00
9:55 AM,42.8,39.2,87,29.89,10.0,NNW,5.8,-,N/A,,Overcast,330,2012-11-01 15:55:00
10:15 AM,42.8,39.2,87,29.89,10.0,NNW,3.5,-,N/A,,Overcast,330,2012-11-01 16:15:00
10:35 AM,42.8,39.2,87,29.89,10.0,Calm,Calm,-,N/A,,Overcast,0,2012-11-01 16:35:00
10:55 AM,42.8,39.2,87,29.89,10.0,Calm,Calm,-,N/A,,Overcast,0,2012-11-01 16:55:00
11:15 AM,44.6,39.2,81,29.90,10.0,South,3.5,-,N/A,,Overcast,190,2012-11-01 17:15:00
11:35 AM,44.6,39.2,81,29.89,2.0,WSW,5.8,-,N/A,,Overcast,250,2012-11-01 17:35:00
3:15 PM,57.2,32.0,38,29.85,10.0,WNW,12.7,18.4,N/A,,Overcast,290,2012-11-01 21:15:00
3:35 PM,57.2,35.6,44,29.85,10.0,West,9.2,18.4,N/A,,Overcast,270,2012-11-01 21:35:00
4:15 PM,55.4,33.8,44,29.86,10.0,West,10.4,-,N/A,,Scattered Clouds,280,2012-11-01 22:15:00
4:55 PM,51.8,35.6,54,29.91,10.0,SSW,15.0,21.9,N/A,,Mostly Cloudy,200,2012-11-01 22:55:00
5:15 PM,53.6,33.8,47,29.90,10.0,SSW,15.0,18.4,N/A,,Mostly Cloudy,200,2012-11-01 23:15:00
5:35 PM,53.6,30.2,41,29.92,10.0,SSW,9.2,19.6,N/A,,Mostly Cloudy,200,2012-11-01 23:35:00
5:55 PM,51.8,30.2,44,29.93,10.0,SSW,12.7,18.4,N/A,,Overcast,210,2012-11-01 23:55:00
6:15 PM,48.2,30.2,50,29.94,10.0,SW,11.5,-,N/A,,Mostly Cloudy,230,2012-11-02 00:15:00
6:35 PM,51.8,28.4,41,29.95,10.0,WSW,10.4,17.3,N/A,,Mostly Cloudy,250,2012-11-02 00:35:00
6:55 PM,51.8,28.4,41,29.96,10.0,SW,8.1,-,N/A,,Mostly Cloudy,230,2012-11-02 00:55:00
7:15 PM,50.0,28.4,43,29.96,10.0,SW,6.9,-,N/A,,Partly Cloudy,230,2012-11-02 01:15:00
7:35 PM,46.4,28.4,50,29.97,10.0,SW,6.9,-,N/A,,Clear,230,2012-11-02 01:35:00
7:55 PM,44.6,28.4,53,29.97,10.0,Calm,Calm,-,N/A,,Clear,0,2012-11-02 01:55:00
8:15 PM,42.8,28.4,57,29.98,10.0,South,6.9,-,N/A,,Scattered Clouds,190,2012-11-02 02:15:00
8:55 PM,41.0,28.4,61,29.99,10.0,Calm,Calm,-,N/A,,Partly Cloudy,0,2012-11-02 02:55:00
9:15 PM,42.8,28.4,57,29.99,10.0,Calm,Calm,-,N/A,,Partly Cloudy,0,2012-11-02 03:15:00
9:35 PM,42.8,28.4,57,30.00,10.0,Calm,Calm,-,N/A,,Mostly Cloudy,0,2012-11-02 03:35:00
9:55 PM,44.6,28.4,53,29.99,10.0,South,3.5,-,N/A,,Overcast,190,2012-11-02 03:55:00
10:15 PM,42.8,30.2,61,30.00,10.0,SW,4.6,-,N/A,,Overcast,220,2012-11-02 04:15:00
10:35 PM,46.4,30.2,53,30.00,10.0,SW,11.5,-,N/A,,Overcast,230,2012-11-02 04:35:00
10:55 PM,46.4,30.2,53,30.00,10.0,SW,10.4,-,N/A,,Overcast,220,2012-11-02 04:55:00
11:15 PM,46.4,28.4,50,30.02,10.0,SW,8.1,-,N/A,,Overcast,220,2012-11-02 05:15:00
11:35 PM,46.4,28.4,50,30.02,10.0,SSW,9.2,-,N/A,,Mostly Cloudy,210,2012-11-02 05:35:00
11:55 PM,46.4,28.4,50,30.02,10.0,SW,9.2,-,N/A,,Mostly Cloudy,220,2012-11-02 05:55:00